Regional Weather Roundup
Issued by NWS

Home | Current Version | Previous Version | Text Only | Print | Product List | Glossary On
Versions: 1 2 3 4 5 6 7 8 9 10 11 12 13 14 15 16 17 18 19 20 21 22 23 24 25 26 27
000
ASUS44 KBMX 291810
RWRAL

ALABAMA REGIONAL WEATHER ROUNDUP
NATIONAL WEATHER SERVICE BIRMINGHAM AL
100 PM CDT THU SEP 29 2016

NOTE: "FAIR" INDICATES FEW OR NO CLOUDS BELOW 12,000 FEET
WITH NO SIGNIFICANT WEATHER AND/OR OBSTRUCTIONS TO VISIBILITY.

THE REMARK "TC" DENOTES TEMPERATURE IN DEGREES CELSIUS.

ALZ001>011-014-016>018-020-291900-
NORTH ALABAMA

CITY           SKY/WX    TMP DP  RH WIND       PRES   REMARKS
MUSCLE SHOALS  PTSUNNY   72  46  39 NW12      30.10F
6HR MIN TEMP:  52; 6HR MAX TEMP:  72;

HUNTSVILLE     MOSUNNY   74  45  35 N10G17    30.08F
6HR MIN TEMP:  52; 6HR MAX TEMP:  74;

DECATUR        PTSUNNY   70  47  43 N13       30.08F
6HR MIN TEMP:  49; 6HR MAX TEMP:  72;

HALEYVILLE     FAIR      69  48  47 NW8G17    30.11F
6HR MIN TEMP:  50; 6HR MAX TEMP:  69;

GADSDEN        SUNNY     72  46  39 N9        30.06F
6HR MIN TEMP:  57; 6HR MAX TEMP:  73;

$$

ALZ012-013-022-023-030>036-040>044-291900-
WEST CENTRAL ALABAMA

CITY           SKY/WX    TMP DP  RH WIND       PRES   REMARKS
TUSCALOOSA     SUNNY     74  45  35 NW12      30.09F
6HR MIN TEMP:  59; 6HR MAX TEMP:  74;

$$

ALZ015-024>027-033>036-040>044-291900-
CENTRAL ALABAMA

CITY           SKY/WX    TMP DP  RH WIND       PRES   REMARKS
BIRMINGHAM     SUNNY     75  44  33 N16G24    30.09F
6HR MIN TEMP:  58; 6HR MAX TEMP:  75;

MONTGOMERY     SUNNY     82  50  32 NW12G22   30.03S
6HR MIN TEMP:  61; 6HR MAX TEMP:  82;

SHELBY CO ARPT SUNNY     74  41  30 N8G16     30.07F
6HR MIN TEMP:  61; 6HR MAX TEMP:  74;

MAXWELL AFB    SUNNY     80  52  38 NW13      30.02F
6HR MIN TEMP:  62; 6HR MAX TEMP:  80;

GREENVILLE     FAIR      83  52  34 NW9       30.03F
6HR MIN TEMP:  64; 6HR MAX TEMP:  83;

$$

ALZ019-021-028-029-037-038-045>048-291900-
EAST CENTRAL ALABAMA

CITY           SKY/WX    TMP DP  RH WIND       PRES   REMARKS
ANNISTON       SUNNY     74  41  30 VRB7G18   30.05F
6HR MIN TEMP:  59; 6HR MAX TEMP:  75;

ALEXANDER CITY SUNNY     78  57  49 NW12G18   30.04F
6HR MIN TEMP:  62; 6HR MAX TEMP:  78;

AUBURN         SUNNY     81  52  36 NW13      30.03S
6HR MIN TEMP:  60; 6HR MAX TEMP:  81;

$$

ALZ051>064-291900-
SOUTHWEST ALABAMA

CITY           SKY/WX    TMP DP  RH WIND       PRES   REMARKS
MOBILE         MOSUNNY   82  61  48 NW7       30.06F
6HR MIN TEMP:  65; 6HR MAX TEMP:  82;

BROOKLEY FIELD SUNNY     84  63  49 NW9       30.05F
6HR MIN TEMP:  68; 6HR MAX TEMP:  84;

EVERGREEN      SUNNY     80  58  46 N9        30.05F
6HR MIN TEMP:  61; 6HR MAX TEMP:  80;

$$

ALZ049-050-065>069-291900-
SOUTHEAST ALABAMA

CITY           SKY/WX    TMP DP  RH WIND       PRES   REMARKS
DOTHAN         SUNNY     88  56  33 NW12      30.02F
6HR MIN TEMP:  68; 6HR MAX TEMP:  88;

OZARK          SUNNY     85  61  43 NW9       29.99F
6HR MIN TEMP:  67; 6HR MAX TEMP:  86;

TROY           SUNNY     81  57  43 W6        30.02F
6HR MIN TEMP:  57; 6HR MAX TEMP:  82;

EUFAULA        NOT AVBL
$$




USA.gov is the U.S. government's official web portal to all federal, state and local government web resources and services.